Location: Newark
(49.7131°N, 2.5431°E)
Time: 15:19:17
(UTC+00:00)

X-37B - Visible Passes

Search period start: 22 September 2020 00:00
Search period end: 02 October 2020 00:00
Orbit: 386 x 387 km, 45.0° (Epoch: 18 September)

Date Brightness Start Highest point End Pass type
(mag) Time Alt. Az. Time Alt. Az. Time Alt. Az.
22 Sep 2.2 04:18:37 20° SW 04:19:07 20° SSW 04:21:34 10° SSE visible
23 Sep 3.3 03:23:01 13° SE 03:23:01 13° SE 03:23:28 10° SE visible
24 Sep 3.1 03:59:51 11° S 03:59:51 11° S 04:00:13 10° S visible
